Regional Weather Roundup
Issued by NWS Upton, NY

Current Version | Previous Version | Text Only | Print | Product List | Glossary Off
Versions: 1 2 3 4 5 6 7 8 9 10 11 12 13 14 15 16 17 18 19 20 21 22 23 24 25 26 27 28 29 30 31 32 33 34 35 36 37 38 39 40 41 42 43 44 45 46 47 48 49 50
000 ASUS41 KOKX 051905 RWROKX REGIONAL WEATHER ROUNDUP NATIONAL WEATHER SERVICE NEW YORK NY 200 PM EST THU MAR 05 2015 NOTE: "FAIR" INDICATES FEW OR NO CLOUDS BELOW 12,000 FEET WITH NO SIGNIFICANT WEATHER AND/OR OBSTRUCTIONS TO VISIBILITY. NYZ071-072-176-178-NJZ106-104-052000- NEW YORK CITY METRO AREA CITY SKY/WX TMP DP RH WIND PRES REMARKS CENTRAL PARK SNOW 20 17 88 NW8 30.15F VSB 1/2 WCI 10 LAGUARDIA APRT SNOW 23 19 85 NW13 30.14F VSB 1/4 WCI 11 KENNEDY INTL SNOW 23 18 81 NW17 30.15F VSB 1/4 WCI 9 NEWARK/LIBERTY LGT SNOW 22 19 89 NW10 30.16F VSB 1 WCI 11 BRNX BOT. GARD N/A N/A N/A N/A N9 30.17F TETERBORO LGT SNOW 23 18 81 CALM 30.14F $$ NYZ177-179-078>081-052000- LONG ISLAND NEW YORK CITY SKY/WX TMP DP RH WIND PRES REMARKS FARMINGDALE SNOW 23 19 85 N10 30.14F VSB 1/2 WCI 12 ISLIP LGT SNOW 21 17 84 N9 30.11F VSB 3/4 WCI 11 SHIRLEY LGT SNOW 22 17 81 NW12 30.15F VSB 3/4 WCI 10 WESTHAMPTON SNOW 22 18 85 N12 30.14F VSB 1/2 WCI 10 MONTAUK POINT N/A 25 22 88 NW12 30.10F WCI 14 $$ NYZ052-065-067-052000- HUDSON VALLEY CITY SKY/WX TMP DP RH WIND PRES REMARKS WHITE PLAINS CLOUDY 22 17 81 NW3 30.10F NEWBURGH PTSUNNY 25 5 42 N12 30.13R WCI 14 MONTGOMERY CLOUDY 23 2 40 NW9 30.13R WCI 13 POUGHKEEPSIE CLOUDY 24 4 42 N10 30.16R WCI 14 ALBANY CLOUDY 21 5 50 NW16 30.17R WCI 7 $$ NJZ001-105-106-008-010-013-015-019>022-104-052000- NEW JERSEY CITY SKY/WX TMP DP RH WIND PRES REMARKS NEWARK/LIBERTY LGT SNOW 22 19 89 NW10 30.16F VSB 1 WCI 11 TETERBORO LGT SNOW 23 18 81 CALM 30.14F CALDWELL CLOUDY 22 15 75 W6 30.15F WCI 14 MORRISTOWN CLOUDY 21 18 86 NW3 30.15F SOMERVILLE CLOUDY 22 17 81 NW5 30.16S WCI 16 SUSSEX MIX PCPN 22 0 38 N13 30.14S WCI 10 ANDOVER N/A 21 3 45 VRB7 30.13S WCI 12 TRENTON SNOW 21 16 81 N13 30.18R VSB 1/2 WCI 9 MILLVILLE SNOW 27 32 100 N21 30.15R VSB 1/2 WCI 13 ATLANTIC CITY HVY SNOW 28 27 96 N10 30.12F VSB 1/4 WCI 19 WRIGHTSTOWN LGT SNOW 25 21 86 N20 30.13R FOG WCI 11 TOMS RIVER CLOUDY 27 21 80 N14 30.14S WCI 15 BELMAR CLOUDY 25 16 68 N16 30.16R WCI 12 $$ PAZ047>061-062-071-052000- EASTERN PENNSYLVANIA CITY SKY/WX TMP DP RH WIND PRES REMARKS PHILADELPHIA LGT SNOW 25 21 85 N13 30.21R VSB 3/4 WCI 14 ALLENTOWN CLOUDY 21 7 54 NW7 30.18S WCI 12 SCRANTON CLOUDY 18 2 49 NW12 30.17R WCI 5 $$ CTZ002-004>006-009-010-012-RIZ004-006-007-MAZ004-011-015-052000- SOUTHERN NEW ENGLAND IN CT CITY SKY/WX TMP DP RH WIND PRES REMARKS BRADLEY INTL CLOUDY 26 5 40 NW14 30.10F WCI 14 HARTFORD CLOUDY 25 5 42 NW7G22 30.13S WCI 17 DANBURY CLOUDY 22 1 40 N10 30.12F WCI 11 WTRBRY/OXFORD CLOUDY 21 0 39 N12 30.09F WCI 9 BRIDGEPORT CLOUDY 21 18 88 CALM 30.13F MERIDEN CLOUDY 24 4 42 NW13 30.13S WCI 12 NEW HAVEN FLURRIES 21 17 84 CALM 30.13F CHESTER SNOW 23 19 86 MISG 30.11S VSB 1/2 GROTON HVY SNOW 22 20 92 NW10 30.12S VSB 1/4 WCI 11 WILLIMANTIC CLOUDY 26 12 55 CALM 30.09F IN RI CITY SKY/WX TMP DP RH WIND PRES REMARKS PROVIDENCE SNOW 25 21 85 N3 30.10S VSB 1/4 BLOCK ISLAND CLOUDY 25 19 80 NW10G16 30.08F VSB 1/2 WCI 15 WESTERLY SNOW 24 21 88 NW8 30.11F VSB 1/2 WCI 15 IN MA CITY SKY/WX TMP DP RH WIND PRES REMARKS BOSTON CLOUDY 28 7 41 N15 30.09R WCI 16 WORCESTER CLOUDY 24 1 36 N9 30.02S WCI 14 WESTFIELD CLOUDY 25 4 40 N10 30.10S WCI 15 PROVINCETOWN CLOUDY 25 21 86 N12 30.10R VSB 1 WCI 14 NANTUCKET SNOW 28 25 88 N14 30.08R VSB 1/2 WCI 17 $$ ANZ330-335-338-340-345-350-353-355-052000- COASTAL MARINE OBSERVATIONS STATION/POSITION TIME SKY/WX TEMP WIND PRES VSBY WAVE AIR SEA DIR/SP/G HT/PER (UTC) (F) (DEG/KT/KT) (MB) (MI) (FT/S) NY HARB ENTRANCE 1800 27 38 350/ 10/ 12 1021.2 3/ 8 4S FIRE IS 1900 32 N/A 2/ 9 20S FIRE ISLAND 1800 36 1021.4 4/ 5 23SW MTP 1900 N/A 4/ 9 HUDSON CANYON NOT AVBL EXECUTION ROCKS NOT AVBL WESTERN LI SOUND NOT AVBL CENTRAL LI SOUND NOT AVBL EASTERN LI SOUND NOT AVBL ROBBINS REEF 1800 21 350/ 12/ 14 1019.8 $$ >>>>>>>>>>>>>>>>>>>>>>>>>>>> KEY <<<<<<<<<<<<<<<<<<<<<<<<<<< > < > SKY/WX - SKY CONDITION/PRESENT WEATHER < > TMP - TEMPERATURE IN FAHRENHEIT < > DP - DEWPOINT IN FAHRENHEIT < > RH - RELATIVE HUMIDITY IN PERCENT < > WIND - DIRECTION AND SPEED IN MPH < > PRES - MEAN SEA LEVEL PRESSURE IN INCHES OF HG < > WCI - WIND CHILL INDEX < > VSB - VISIBILITY IN MILES < > HX - HEAT INDEX < > TC - TEMPERATURE IN CELSIUS < > VRB - VARIABLE WIND DIRECTION < > < >>>>>>>>>>>>>>>>>>>>>>>>>>>> KEY <<<<<<<<<<<<<<<<<<<<<<<<<<<

USA.gov is the U.S. government's official web portal to all federal, state and local government web resources and services.